Wind_Speed
36 36 37 37 37 37 38 39 41 40 39 38 40 41 41 41 40 40 41 41 40 40 40 40 41 42 43 44 44 45 45 46 47 48 48 49 49 49 50 51 52 53 54 54
36 36 37 37 36 37 37 38 40 40 39 39 41 41 42 41 41 41 42 41 41 41 41 40 41 42 42 43 43 44 45 46 47 48 48 49 49 50 51 51 52 53 53 54
37 37 38 38 35 36 37 37 38 39 38 39 39 40 40 40 40 41 41 40 40 40 40 40 41 41 42 42 43 44 45 45 46 47 48 49 50 50 51 51 52 52 53 54
38 37 38 36 35 36 37 37 38 39 38 39 40 39 39 39 39 39 40 40 40 41 41 41 41 41 41 42 43 44 45 46 46 47 48 49 50 51 51 51 51 51 53 53
38 38 39 36 36 37 38 37 37 39 39 39 40 40 39 39 39 39 40 40 40 40 40 40 41 41 40 41 42 43 45 45 46 47 48 49 50 51 51 51 51 51 51 52
37 39 39 37 37 38 39 38 38 39 39 39 39 39 38 39 39 39 39 40 39 39 39 39 40 41 41 41 42 43 44 45 47 48 49 49 49 49 50 50 50 50 50 51
36 38 38 38 38 38 39 39 38 39 39 39 39 39 38 38 38 39 39 39 39 39 39 39 39 40 41 42 43 43 44 45 46 47 48 49 49 49 49 49 50 50 51 51
37 38 38 38 38 38 39 39 39 39 39 39 39 39 38 38 38 39 39 39 39 39 39 40 40 41 41 42 43 43 44 45 45 45 46 48 48 48 49 49 49 50 50 50
38 37 38 38 38 39 39 39 38 39 39 38 38 38 38 38 38 38 39 39 39 39 39 40 40 40 41 41 41 42 43 44 45 45 45 46 47 47 48 49 49 49 49 49
38 37 38 38 39 38 38 39 39 39 38 38 38 38 38 38 38 38 38 38 39 39 39 39 40 40 40 41 41 42 43 43 44 44 44 45 46 46 47 48 48 49 49 49
38 39 39 39 39 40 40 40 39 39 38 37 37 37 38 38 38 37 37 38 38 39 39 39 40 40 40 41 41 42 42 43 43 43 44 44 45 45 45 46 47 48 48 49
39 40 40 40 40 40 40 39 39 39 39 38 38 38 38 38 38 38 38 38 38 38 39 39 39 40 40 40 41 41 41 41 42 42 43 43 43 44 45 45 46 46 47 48
39 40 40 40 40 40 40 40 39 39 39 39 39 38 38 39 39 39 39 39 39 39 39 40 40 40 40 41 41 41 41 41 41 41 41 42 42 43 43 44 44 45 46 47
38 39 39 39 40 40 40 40 40 40 39 39 39 39 39 39 39 40 40 40 40 40 40 40 40 41 41 41 41 41 41 41 41 41 41 41 42 42 43 43 43 43 44 45
37 38 39 39 39 40 41 41 40 40 39 39 40 40 39 39 40 40 40 40 40 40 40 41 41 41 41 40 40 40 40 41 41 41 41 41 41 42 42 43 43 44 44 45
37 38 38 39 39 40 40 40 40 40 40 40 40 40 40 40 40 40 40 40 40 41 41 41 41 41 41 41 40 41 41 41 41 41 41 41 41 42 42 43 43 44 44 44
37 38 38 38 39 39 40 40 40 40 40 39 40 40 40 40 40 40 40 41 41 42 42 41 41 41 40 40 41 41 41 42 42 42 42 42 42 42 42 43 43 44 44 43
38 38 39 39 39 39 39 40 40 40 40 40 40 40 40 40 40 41 41 42 42 42 42 41 41 41 41 41 41 41 42 42 42 42 42 42 42 43 43 43 43 43 42 42
38 38 38 38 38 38 39 39 39 39 39 40 40 40 41 41 42 42 43 43 43 42 42 42 42 42 42 42 42 42 42 42 42 42 42 42 42 42 42 42 42 41 41 40
38 38 38 38 38 38 38 38 38 39 39 40 40 40 41 42 42 42 42 42 43 42 42 42 42 41 41 41 41 42 42 41 41 41 41 41 41 41 40 40 40 40 40 39
39 39 39 38 38 38 38 38 39 39 40 40 41 41 42 42 42 42 42 42 42 42 41 41 40 40 40 40 40 40 40 40 40 40 40 40 40 39 39 39 39 38 38 38
38 38 38 37 37 38 38 39 39 40 40 41 41 41 42 42 42 42 42 42 41 41 40 40 40 40 40 40 40 39 40 40 40 40 40 40 40 39 39 38 37 37 36 36
39 38 38 38 38 39 39 39 40 40 40 40 41 41 41 41 41 41 41 41 41 41 40 40 40 39 39 39 39 39 39 39 39 39 39 39 38 38 37 37 36 36 35 35
39 38 38 38 39 39 39 40 40 40 40 40 40 40 40 40 40 40 40 40 40 40 39 39 39 39 39 39 39 39 39 39 39 39 39 38 38 37 36 36 35 35 34 34
38 38 39 39 40 40 40 40 40 40 40 39 39 39 39 39 39 39 39 39 39 38 38 38 38 38 39 39 38 38 38 39 39 39 38 37 37 36 36 35 35 34 34 33
39 40 40 41 41 41 41 40 40 39 39 38 38 38 38 38 39 39 38 38 38 37 37 37 37 37 37 37 37 37 37 37 36 36 36 36 35 35 34 34 34 33 33 32
40 40 41 41 40 40 39 39 38 38 37 37 37 37 37 38 38 37 37 37 36 36 36 36 36 35 35 35 35 35 35 34 34 34 33 33 33 33 32 32 32 32 31 31
Wind_Direction
287 287 288 288 288 288 287 287 286 286 285 285 282 281 281 281 282 281 280 279 278 277 275 273 272 271 270 269 267 266 264 264 263 264 265 266 266 266 267 267 267 266 265 265
287 287 287 288 289 289 289 289 288 288 286 285 284 283 283 282 282 282 281 279 278 277 276 275 274 273 271 270 269 268 266 265 265 265 266 267 267 268 268 268 268 267 266 266
288 288 288 288 291 291 290 290 290 289 289 287 285 284 283 283 283 283 281 280 279 278 277 277 276 275 273 272 271 270 269 268 267 268 268 268 268 268 269 269 269 267 267 266
291 290 289 294 293 292 291 291 291 290 289 288 287 285 284 283 283 283 282 280 280 280 279 278 277 276 275 274 273 272 271 269 270 270 270 270 270 269 269 269 269 267 266 267
292 292 292 294 295 295 293 292 292 291 289 288 288 286 285 284 285 284 283 281 280 281 281 279 277 276 276 275 274 273 272 271 272 272 271 271 271 271 269 269 269 267 266 267
292 292 294 298 297 296 294 293 293 292 291 290 289 288 287 286 286 285 284 283 281 281 280 279 278 277 276 275 276 275 274 273 273 273 272 271 272 271 270 270 269 266 266 266
292 292 295 298 298 297 295 296 295 294 292 291 290 289 288 287 286 285 284 284 282 281 280 279 278 278 276 276 276 276 276 275 275 275 274 272 272 272 271 270 269 267 266 266
292 293 296 298 297 296 295 295 294 294 293 293 292 290 288 287 286 285 284 283 282 281 280 279 279 279 278 278 277 277 277 277 277 277 276 274 273 272 271 270 269 267 266 267
292 293 294 295 295 295 294 294 294 293 293 293 292 291 289 289 288 287 286 284 282 281 281 281 280 280 279 278 278 278 277 277 277 277 276 275 273 273 272 271 270 269 268 269
291 293 293 293 294 295 295 294 294 293 293 293 292 291 290 290 289 288 287 286 284 283 283 281 281 281 280 279 279 280 279 278 278 277 276 276 275 274 273 272 272 271 270 269
291 292 291 292 293 294 294 294 293 293 293 292 292 291 291 291 290 290 289 288 286 285 284 283 282 281 281 280 280 280 280 279 279 278 277 276 275 274 274 273 273 272 271 271
292 292 292 292 292 292 293 293 293 292 292 291 291 292 292 291 290 290 290 289 287 286 285 285 284 283 282 282 282 281 281 280 280 279 278 277 276 275 275 275 275 275 273 272
291 291 291 291 291 291 292 292 292 292 292 292 291 292 292 291 290 289 289 288 287 287 287 286 285 284 283 283 282 281 281 280 280 281 280 278 277 276 276 276 277 276 275 274
292 292 291 291 291 291 291 291 291 291 291 291 291 292 292 291 290 289 288 288 288 287 288 287 286 285 284 284 283 282 281 281 281 281 281 280 279 279 278 278 277 278 277 276
294 294 293 293 292 291 292 292 292 291 290 290 290 291 291 291 291 290 288 289 289 289 289 288 287 286 285 284 284 283 282 282 282 282 281 281 280 280 279 278 278 278 278 277
295 295 295 294 293 293 293 292 292 291 290 290 290 291 291 292 291 290 289 289 289 290 289 288 288 287 285 284 284 284 283 283 282 282 282 281 281 281 281 280 280 280 279 279
296 297 296 295 294 293 293 293 292 291 291 290 291 292 293 293 292 291 291 290 290 290 290 288 287 286 285 285 284 284 284 283 283 282 282 282 282 282 282 282 281 281 280 279
299 298 298 297 296 295 294 294 293 292 292 292 292 293 294 293 292 292 292 291 290 290 289 289 287 286 286 285 285 285 284 284 283 283 282 282 282 282 283 283 282 281 280 279
302 301 300 299 298 297 296 296 295 294 293 292 292 293 294 294 294 293 293 293 292 291 290 289 288 287 287 286 286 286 285 284 284 283 283 283 283 283 283 283 282 281 280 279
302 302 301 300 300 299 298 298 297 296 295 293 293 294 294 294 294 294 294 294 293 292 290 289 288 288 287 287 287 286 285 285 284 284 284 284 284 284 284 283 283 282 281 280
302 302 301 301 300 299 299 298 298 297 296 296 295 295 294 294 295 294 294 294 294 293 291 291 290 289 288 288 287 287 286 285 285 284 284 284 284 284 284 284 283 282 281 280
304 304 303 302 302 301 301 300 300 299 298 297 297 296 296 295 295 295 295 294 294 293 292 290 289 288 288 288 288 288 287 286 285 285 285 285 284 284 284 283 282 282 281 280
304 304 303 303 302 302 301 301 301 300 299 298 298 298 297 297 296 296 296 296 295 294 293 291 289 288 288 288 288 288 287 286 286 286 286 285 285 284 283 282 282 281 280 280
304 304 303 303 303 303 303 302 302 301 300 300 299 299 298 298 298 297 297 297 296 295 294 292 290 289 288 289 289 288 287 287 286 286 285 285 284 283 282 282 282 281 281 280
304 304 305 305 304 304 303 303 303 303 302 302 301 300 300 299 299 299 298 298 297 296 295 293 292 290 290 290 290 289 288 287 287 286 284 284 283 283 282 281 281 280 280 279
304 304 305 305 306 305 304 304 304 304 303 303 303 302 301 301 301 301 300 299 299 298 297 295 294 292 291 291 291 290 290 289 288 287 286 284 283 282 281 280 280 279 279 278
304 305 306 306 307 306 306 305 305 305 305 305 304 303 302 302 302 302 301 300 299 299 298 297 296 295 293 293 293 293 292 291 290 289 287 286 285 283 281 280 279 278 278 277
Height
5569 5567 5565 5563 5561 5559 5555 5553 5550 5549 5548 5548 5544 5542 5540 5538 5537 5536 5534 5533 5531 5530 5529 5529 5528 5527 5526 5527 5526 5526 5527 5527 5527 5528 5529 5529 5530 5530 5530 5530 5531 5531 5532 5532
5560 5558 5555 5553 5552 5549 5546 5544 5540 5538 5538 5537 5533 5531 5529 5527 5526 5524 5522 5521 5519 5518 5517 5516 5515 5514 5514 5514 5513 5513 5513 5513 5514 5514 5515 5515 5515 5515 5515 5515 5515 5515 5516 5516
5550 5548 5544 5543 5544 5540 5537 5534 5531 5528 5528 5525 5522 5520 5518 5516 5514 5512 5510 5509 5508 5506 5505 5504 5503 5502 5501 5501 5500 5500 5500 5500 5500 5500 5500 5500 5500 5500 5500 5500 5499 5499 5500 5500
5539 5538 5534 5538 5534 5530 5527 5525 5522 5518 5516 5514 5511 5509 5507 5505 5503 5501 5499 5497 5496 5495 5493 5492 5491 5490 5489 5488 5488 5487 5487 5486 5487 5486 5486 5486 5485 5485 5485 5484 5484 5484 5484 5485
5529 5526 5524 5527 5524 5519 5516 5515 5512 5508 5505 5503 5500 5498 5496 5494 5492 5490 5487 5486 5484 5483 5481 5480 5479 5477 5476 5475 5475 5474 5473 5473 5472 5472 5471 5471 5470 5470 5469 5469 5469 5469 5469 5469
5520 5516 5514 5517 5513 5509 5506 5504 5502 5498 5495 5492 5489 5487 5487 5483 5481 5478 5476 5474 5472 5471 5469 5468 5467 5465 5464 5463 5462 5461 5460 5459 5459 5457 5457 5456 5455 5455 5454 5454 5454 5453 5453 5454
5511 5507 5506 5506 5502 5499 5496 5495 5491 5487 5484 5481 5479 5477 5475 5472 5469 5467 5465 5462 5461 5459 5457 5456 5454 5453 5452 5450 5449 5448 5447 5446 5445 5443 5442 5441 5441 5440 5439 5439 5438 5438 5439 5438
5502 5499 5500 5496 5491 5489 5486 5482 5479 5476 5473 5471 5468 5465 5463 5460 5458 5455 5453 5451 5449 5447 5445 5444 5442 5441 5440 5438 5437 5435 5434 5432 5431 5429 5428 5427 5425 5425 5424 5423 5423 5423 5423 5423
5494 5493 5489 5484 5481 5478 5474 5471 5468 5465 5463 5460 5457 5455 5452 5450 5447 5444 5442 5440 5437 5435 5434 5432 5430 5429 5427 5425 5424 5422 5421 5419 5417 5415 5414 5412 5411 5410 5409 5409 5408 5408 5408 5408
5484 5482 5478 5474 5471 5468 5464 5461 5458 5455 5452 5449 5447 5444 5442 5439 5436 5434 5431 5428 5426 5424 5422 5420 5418 5416 5415 5413 5411 5409 5407 5405 5403 5401 5400 5398 5397 5396 5395 5394 5394 5393 5393 5393
5473 5471 5468 5465 5461 5457 5454 5451 5448 5445 5442 5439 5436 5433 5431 5428 5425 5422 5420 5417 5415 5412 5410 5408 5406 5404 5402 5400 5399 5397 5394 5392 5390 5388 5386 5385 5383 5382 5381 5381 5380 5379 5379 5378
5464 5460 5457 5454 5450 5447 5444 5441 5437 5434 5431 5428 5425 5422 5419 5417 5414 5411 5409 5406 5403 5401 5398 5396 5394 5392 5390 5388 5386 5384 5381 5379 5377 5375 5373 5371 5370 5369 5367 5367 5365 5364 5363 5363
5452 5449 5446 5443 5439 5436 5433 5430 5427 5424 5421 5418 5414 5411 5408 5405 5402 5400 5397 5394 5392 5389 5387 5384 5382 5379 5377 5375 5373 5371 5368 5366 5364 5362 5360 5358 5357 5356 5355 5353 5351 5350 5348 5347
5441 5438 5435 5432 5429 5425 5422 5419 5416 5413 5409 5406 5403 5400 5397 5394 5391 5388 5385 5382 5380 5377 5374 5372 5369 5367 5365 5362 5360 5358 5356 5353 5351 5349 5347 5345 5344 5342 5341 5340 5338 5336 5334 5332
5430 5427 5424 5421 5417 5414 5411 5408 5405 5401 5398 5395 5392 5389 5385 5382 5379 5376 5373 5370 5367 5365 5362 5359 5357 5354 5352 5349 5347 5345 5343 5340 5338 5336 5334 5332 5330 5329 5327 5325 5324 5323 5321 5319
5420 5416 5413 5409 5406 5403 5400 5396 5393 5390 5387 5384 5380 5377 5373 5370 5367 5364 5360 5358 5355 5352 5350 5347 5344 5341 5339 5337 5334 5332 5329 5327 5325 5323 5321 5319 5317 5315 5313 5311 5310 5308 5306 5304
5409 5406 5402 5399 5395 5392 5388 5385 5382 5378 5375 5372 5368 5365 5362 5358 5355 5351 5348 5345 5342 5339 5336 5334 5331 5328 5326 5323 5321 5319 5316 5314 5312 5309 5307 5305 5303 5301 5299 5297 5295 5293 5291 5289
5399 5395 5391 5388 5384 5380 5377 5373 5370 5366 5363 5360 5357 5353 5350 5346 5343 5339 5336 5332 5329 5326 5323 5320 5318 5315 5312 5310 5308 5305 5303 5300 5298 5296 5294 5292 5290 5288 5286 5284 5281 5279 5277 5275
5388 5385 5381 5377 5373 5369 5366 5362 5358 5355 5351 5348 5345 5341 5337 5334 5330 5327 5323 5319 5316 5313 5310 5307 5304 5301 5299 5296 5294 5292 5289 5287 5284 5282 5280 5278 5276 5274 5272 5269 5267 5265 5263 5262
5378 5375 5371 5367 5363 5359 5355 5351 5347 5343 5339 5336 5332 5329 5325 5321 5318 5314 5310 5306 5303 5299 5296 5293 5290 5288 5285 5282 5280 5278 5275 5273 5271 5268 5266 5264 5262 5260 5258 5255 5253 5251 5250 5248
5368 5364 5360 5356 5352 5348 5344 5340 5336 5332 5328 5324 5320 5317 5313 5309 5305 5301 5297 5293 5289 5286 5283 5279 5277 5274 5271 5269 5266 5264 5262 5259 5257 5255 5253 5251 5249 5246 5244 5242 5240 5238 5236 5235
5358 5354 5350 5345 5341 5337 5333 5329 5324 5320 5316 5312 5308 5304 5300 5296 5292 5288 5284 5280 5276 5273 5269 5266 5263 5261 5258 5256 5253 5251 5249 5246 5244 5242 5240 5237 5235 5233 5231 5229 5227 5225 5223 5222
5347 5343 5339 5335 5331 5326 5322 5318 5313 5309 5304 5300 5296 5291 5287 5283 5279 5275 5272 5267 5263 5260 5256 5253 5250 5247 5245 5242 5240 5238 5235 5233 5231 5229 5226 5224 5222 5220 5218 5216 5214 5213 5211 5210
5337 5333 5329 5324 5320 5315 5311 5306 5301 5297 5292 5288 5283 5279 5275 5271 5267 5263 5259 5255 5251 5247 5244 5240 5237 5234 5232 5229 5227 5225 5222 5220 5218 5216 5213 5211 5209 5207 5205 5204 5202 5201 5199 5198
5327 5322 5318 5313 5309 5304 5299 5294 5290 5285 5280 5276 5271 5267 5263 5259 5255 5251 5246 5242 5239 5235 5231 5228 5225 5222 5219 5217 5214 5212 5209 5207 5205 5203 5200 5198 5197 5195 5193 5191 5190 5189 5187 5186
5316 5312 5307 5302 5298 5293 5288 5283 5278 5274 5269 5265 5260 5256 5252 5247 5243 5239 5235 5231 5227 5223 5220 5216 5213 5210 5207 5204 5201 5199 5196 5194 5192 5189 5187 5186 5184 5182 5181 5179 5178 5177 5175 5174
5305 5301 5296 5291 5286 5281 5277 5272 5267 5263 5258 5254 5250 5245 5241 5236 5232 5228 5224 5220 5216 5212 5208 5204 5201 5198 5195 5192 5189 5187 5184 5182 5180 5178 5175 5174 5172 5170 5169 5168 5166 5165 5164 5163